www.pogodaiklimat.ru

Погода и климат >> Архив погоды >> Индия >> Gopalpur


ПОГОДА в Gopalpur

  • Прогноз погоды в Gopalpur
  • Монитор погоды в Gopalpur
  • Климат города

АРХИВ ПОГОДЫ в Gopalpur

Время (UTC), дата Ветер
(напр.,м/с)
 
Видим.   Явления Облачность Т
(С)
Тd
(С)
f
(%)
Тe
(С)
Тes
(С)
Комфортность P
(гПа)
Po
(гПа)
Тmin
(С)
Tmax
(С)
R
(мм)
R24
(мм)
S
(см)
15 14.10 Ю 2 4000 м мгла 6/3 540 м
[Sc Ac trans Ci fib]
+28.4 +25.6 85 +42 +42 опасность
перегрева
1012.5 1013.0
18 14.10 Ю 2 2000 м мгла 5/1 600 м
[Sc Ci fib]
+28.2 +25.4 85 +41 +41 опасность
перегрева
1012.3 1012.0
21 14.10 штиль 0 2000 м мгла 5/1 600 м
[Sc Ac trans Ci fib]
+27.2 +24.9 87 +39 +39 очень
душно
1011.3 1011.0
00 15.10 СЗ 1 2000 м мгла 5/1 600 м
[Sc Ci fib]
+25.6 +24.4 93 +36 +36 очень
душно
1012.6 1013.0
03 15.10 СЗ 1 2000 м мгла 5/3 600 м
[Sc Ci fib]
+27.4 +26.0 92 +41 +46 опасность
перегрева
1014.5 1015.0 +25.3
06 15.10 штиль 0 2000 м мгла 6/4 600 м
[Sc Ci fib]
+29.6 +26.0 81 +44 +57 опасность
перегрева
1014.2 1014.0
09 15.10 штиль 0 4000 м 8/4 600 м
[Sc diur, vesp Ci fib]
+32.4 +26.3 70 +49 +55 опасность
перегрева
1011.5 1012.0
12 15.10 штиль 0 4000 м 5/1 600 м
[Sc Ci fib]
+30.6 +25.5 74 +45 +45 опасность
перегрева
1012.0 1012.0 +33.4
15 15.10 штиль 0 4000 м мгла 4/0
[Ci fib]
+28.6 +24.9 80 +41 +41 опасность
перегрева
1013.5 1014.0
18 15.10 штиль 0 2000 м мгла 3/0
[Ci fib]
+27.6 +25.0 86 +40 +40 очень
душно
1013.5 1014.0
21 15.10 С 1 2000 м мгла 3/0
[Ci fib]
+26.8 +24.2 86 +37 +37 очень
душно
1012.6 1013.0
00 16.10 С 2 2000 м мгла 3/0
[Ci fib]
+24.2 +22.1 88 +31 +31 очень
душно
1013.0 1013.0
03 16.10 С 1 4000 м мгла 1/0
[Ci fib]
+26.0 +23.1 84 +35 +42 очень
душно
1015.4 1015.0 +23.6
06 16.10 штиль 0 4000 м 4/3 600 м
[Sc Ci fib]
+31.4 +24.3 66 +44 +59 опасность
перегрева
1014.6 1015.0
09 16.10 В 1 4000 м 3/1 750 м
[Cu hum Ci fib]
+33.0 +24.5 61 +46 +55 опасность
перегрева
1011.7 1012.0
12 16.10 В 1 4000 м 3/0
[Ci fib]
+30.6 +23.7 67 +42 +42 опасность
перегрева
1011.3 1011.0 +34.3
15 16.10 штиль 0 4000 м 3/0
[Ci fib]
+28.2 +24.2 79 +39 +39 очень
душно
1012.6 1013.0
18 16.10 СЗ 1 4000 м мгла 3/0 600 м
[Ci fib]
+26.4 +23.5 84 +36 +36 очень
душно
1013.1 1013.0
21 16.10 СЗ 2 2000 м мгла 3/0 600 м
[Ci fib]
+25.8 +23.2 86 +35 +35 очень
душно
1012.2 1012.0
00 17.10 СЗ 2 2000 м мгла 3/0 600 м
[Ci fib]
+22.2 +20.7 91 +29 +29 очень
душно
1012.6 1013.0
03 17.10 С 2 2000 м мгла ясно +24.8 +21.5 82 +32 +38 очень
душно
1014.5 1015.0 +21.9
06 17.10 Ю 2 4000 м ясно +31.4 +22.0 57 +40 +58 опасность
солнечного
удара
1012.8 1013.0
09 17.10 Ю 2 4000 м 1/1 750 м
[Cu hum]
+32.2 +25.1 66 +46 +54 опасность
перегрева
1009.5 1010.0
12 17.10 Ю 2 4000 м 1/1 750 м
[Cu hum]
+29.8 +23.1 67 +40 +40 очень
душно
1009.5 1010.0 +33.0
15 17.10 Ю 2 4000 м 3/1 600 м
[Sc Ci fib]
+27.8 +23.7 78 +38 +38 очень
душно
1012.0 1012.0
18 17.10 штиль 0 4000 м 3/1 600 м
[Sc Ci fib]
+26.4 +22.9 81 +35 +35 очень
душно
1011.5 1012.0
21 17.10 штиль 0 2000 м мгла 3/1 600 м
[Sc Ci fib]
+25.6 +22.6 84 +34 +34 очень
душно
1010.9 1011.0
00 18.10 СЗ 2 2000 м мгла 1/0
[Ci fib]
+22.4 +20.2 87 +29 +29 очень
душно
1011.0 1011.0
03 18.10 СЗ 2 2000 м мгла 1/0
[Ci fib]
+25.2 +21.3 79 +32 +38 очень
душно
1013.2 1013.0 +22.0
06 18.10 штиль 0 4000 м ясно +32.2 +22.6 57 +42 +64 опасность
перегрева
1012.2 1012.0
09 18.10 Ю 2 4000 м ясно +32.0 +24.9 66 +45 +54 опасность
перегрева
1009.8 1010.0
12 18.10 Ю 2 4000 м 3/0
[Ci fib]
+29.4 +23.3 70 +40 +40 очень
душно
1009.7 1010.0 +33.0
15 18.10 ЮЗ 2 4000 м 3/0
[Ci fib]
+27.4 +23.3 78 +37 +37 очень
душно
1011.2 1011.0
18 18.10 СЗ 1 2000 м мгла 3/0
[Ci fib]
+26.2 +23.0 83 +35 +35 очень
душно
1010.8 1011.0
21 18.10 СЗ 2 2000 м мгла 3/0
[Ci fib]
+24.8 +22.4 87 +32 +32 очень
душно
1009.7 1010.0
00 19.10 СЗ 2 2000 м мгла 3/0
[Ci fib]
+23.6 +20.9 85 +30 +30 очень
душно
1011.0 1011.0
03 19.10 С 2 2000 м мгла 6/1 600 м
[Sc Ac trans Ci fib]
+25.8 +22.5 82 +34 +38 очень
душно
1013.0 1013.0 +22.8
06 19.10 С 1 4000 м 3/0
[Ci fib]
+32.0 +17.3 41 +36 +53 опасность
солнечного
удара
1012.3 1012.0
09 19.10 штиль 0 4000 м 1/0
[Ci fib]
+35.0 +22.9 50 +45 +57 опасность
перегрева
1010.1 1010.0
12 19.10 штиль 0 4000 м 1/0
[Ci fib]
+30.6 +24.0 68 +42 +42 опасность
перегрева
1010.7 1011.0 +36.3
15 19.10 штиль 0 4000 м мгла 1/0
[Ci fib]
+29.2 +24.6 76 +41 +41 опасность
перегрева
1012.7 1013.0
18 19.10 штиль 0 2000 м мгла 1/0
[Ci fib]
+27.4 +23.3 78 +37 +37 очень
душно
1012.7 1013.0
21 19.10 СЗ 1 2000 м мгла 1/0
[Ci fib]
+25.4 +21.8 80 +33 +33 очень
душно
1011.6 1012.0
00 20.10 С 2 2000 м мгла 1/0
[Ci fib]
+24.0 +21.0 83 +30 +30 очень
душно
1012.7 1013.0
03 20.10 С 2 4000 м мгла 1/0
[Ci fib]
+26.0 +23.1 84 +35 +41 очень
душно
1015.0 1015.0 +23.4
06 20.10 С 1 4000 м мгла 1/0
[Ci fib]
+32.0 +24.0 63 +44 +62 опасность
перегрева
1013.8 1014.0
09 20.10 В 1 4000 м 3/1 750 м
[Cu hum Ci fib]
+34.6 +26.3 62 +51 +60 опасность
перегрева
1011.0 1011.0
12 20.10 штиль 0 4000 м 3/0
[Ci fib]
+30.8 +25.1 72 +45 +45 опасность
перегрева
1011.6 1012.0 +35.5
15 20.10 штиль 0 4000 м 3/0
[Ci fib]
+29.2 +24.9 78 +42 +42 опасность
перегрева
1013.5 1014.0
18 20.10 СЗ 2 2000 м мгла 3/0
[Ci fib]
+27.4 +24.5 84 +39 +39 очень
душно
1013.7 1014.0
21 20.10 СЗ 2 2000 м мгла 3/0
[Ci fib]
+25.4 +23.3 88 +34 +34 очень
душно
1012.7 1013.0
00 21.10 СЗ 2 2000 м мгла 3/0
[Ci fib]
+24.6 +22.2 87 +32 +32 очень
душно
1012.6 1013.0
03 21.10 С 2 2000 м мгла 3/1 600 м
[Sc Ci fib]
+27.4 +22.4 74 +36 +41 очень
душно
1015.4 1015.0 +24.3
06 21.10 С 2 4000 м 3/0
[Ci fib]
+32.4 +23.8 61 +44 +60 опасность
перегрева
1013.5 1014.0
09 21.10 В 1 4000 м 4/3 600 м
[Sc diur, vesp Ci fib]
+33.8 +26.6 66 +51 +58 опасность
перегрева
1011.2 1011.0
12 21.10 штиль 0 4000 м 5/3 600 м
[Sc diur, vesp Ci fib]
+31.6 +26.6 75 +49 +49 опасность
перегрева
1011.6 1012.0 +34.8

 

Местоположение метеостанции Gopalpur (Orissa, Индия): широта 19.27 долгота 84.88 высота над уровнем моря 17 м.

В архиве по умолчанию представлена погода в Gopalpur за последнюю неделю. Архивные данные за месяц целиком и за предыдущие месяцы, начиная с января 2011 года, Вы можете получить, выбрав интересующий диапазон дат из раскрывающегося списка и нажав кнопку "Ввод!".


*Определитесь, кто Вы:
робот инопланетянин человек

Внимание! Время в таблицах - всемирное. Для получения местного времени необходимо прибавить поправку, которая в Gopalpur равна 5.5 ч.

Смотрите также архив погоды в соседних городах и на ближайших метеорологических станциях:

Погода в Puri (Orissa, Индия) (115 км)
Погода в Kalingapatam (Andhra Pradesh, Индия) (131 км)
Погода в Bhubaneswar (Orissa, Индия) (148 км)
Погода в Phulbani (Orissa, Индия) (149 км)
Погода в Cuttack (Orissa, Индия) (173 км)
Погода в Angul (Orissa, Индия) (175 км)
Погода в Bhawanipatna (Orissa, Индия) (192 км)
Погода в Titlagarh (Orissa, Индия) (201 км)
Погода в Paradip Port (Orissa, Индия) (220 км)
Погода в Koraput (Orissa, Индия) (233 км)

Пояснения к столбцам:

Ветер - указаны скорость ветра в м/с - средняя за 10 мин, порывы в срок и между сроками (в фигурных скобках) и направление, откуда дует ветер: С - северный, СВ - северо-восточный, В - восточный, ЮВ - юго-восточный, Ю - южный, ЮЗ - юго-западный, З - западный, СЗ - северо-западный.
Видимость - горизонтальная дальность видимости в метрах или километрах. При видимости от 1 до 10 км при отсутствии осадков обычно наблюдается дымка, при ухудшении видимости до 1 км и менее - туман. В сухую погоду видимость может ухудшаться дымом, пылью или мглою.
Явления - указаны атмосферные явления, наблюдавшиеся в срок или в последний час перед сроком; фигурными скобками обозначены явления, наблюдавшиеся между сроками (за 1-3 часа до срока); квадратными скобками обозначены град или гололедные отложения с указанием их диаметра в мм.
Облачность - указаны через наклонную черту общая и нижняя облачность в баллах и высота нижней границы облаков в метрах; квадратными скобками обозначены формы облаков: Ci - перистые, Cs - перисто-слоистые, Cc - перисто-кучевые, Ac - высококучевые, As - высокослоистые, Sc - слоисто-кучевые, Ns - слоисто-дождевые, Cu - кучевые, Cb - кучево-дождевые. Подробнее классификацию облаков см. в Атласе облаков (PDF).
T - Температура воздуха - температура, измеренная на высоте 2 м над землей.
Td - Температура точки росы - температура, при понижении до которой содержащийся в воздухе водяной пар достигнет насыщения.
f - Относительная влажность воздуха - влажноcть воздуха, измеренная на высоте 2 м над землей.
Te - Эффективная температура - температура, которую ощущает одетый по сезону человек в тени. Характеристика душности погоды. При расчете учитывается влияние влажности воздуха и скорости ветра на теплоощущения человека.
Tes - Эффективная температура на солнце - температура, которую ощущает человек, с поправкой на солнечный нагрев. Характеристика знойности погоды. Зависит от высоты солнца над горизонтом, облачности и скорости ветра. Ночью, в пасмурную погоду, а также при ветре 12 м/с и более поправка равна нулю.
P - Атмосферное давление - приведенное к уровню моря атмосферное давление.
Po - Атмосферное давление - измеренное на уровне метеостанции атмосферное давление.
Tmin - Минимальная температура - минимум температуры воздуха на высоте 2 м над землей.
Tmax - Максимальная температура - максимум температуры воздуха на высоте 2 м над землей.
R - Количество осадков - Количество выпавших осадков за период времени, мм. При наведении курсора мыши на число - период времени, за который выпало указанное количество осадков.
R24 - Количество осадков - Количество выпавших осадков за 24 часа, мм.
S - Снежный покров - Высота снежного покрова, см. При наведении курсора мыши на число - состояние снежного покрова и степень покрытия местности в баллах.